GFSSE_sfc_rhum_180.txt.gz
RH
26 44 91 90 92 92 94 94 93 92 91 90 90 91 90 90 92 92 90 88 84 80 75 76 76 77 79 82 84 86 86 89 90 88 84 78 74 76 79 78 72 45 82
28 50 92 90 91 91 93 94 93 93 92 91 91 90 90 92 92 91 90 87 84 79 75 74 74 75 77 81 84 85 84 88 90 88 84 77 76 74 76 78 82 62 82
35 52 66 90 91 90 92 93 93 92 91 91 91 91 92 92 91 91 90 88 84 79 75 74 73 73 75 78 84 83 82 82 86 84 76 38 45 76 75 79 82 80 80
36 49 53 91 91 90 90 91 92 91 90 91 90 90 91 91 91 91 91 90 85 81 75 74 74 75 79 84 86 85 83 81 79 78 42 37 37 77 77 77 77 78 80
34 43 52 90 91 90 90 91 91 90 90 90 90 90 89 89 90 91 92 90 86 83 77 75 77 79 84 87 87 87 84 82 78 61 42 46 41 66 78 78 79 79 81
32 38 79 91 91 91 89 91 90 90 91 91 90 89 89 90 90 91 92 89 86 84 79 79 82 86 90 90 90 89 87 84 84 32 40 51 46 78 78 80 79 82 80
37 41 65 92 91 91 90 91 91 91 92 92 91 91 92 92 92 92 92 90 89 88 87 87 88 89 89 89 87 87 87 84 42 35 40 45 56 77 76 78 83 83 83
43 48 58 86 91 91 92 93 94 93 93 94 94 94 93 94 93 93 94 93 93 92 92 90 89 86 82 80 81 85 86 83 49 42 40 40 74 75 76 81 84 84 82
50 56 60 65 75 96 95 95 95 94 95 95 95 95 95 95 94 94 93 93 92 92 90 88 85 86 86 87 87 89 88 83 40 38 38 41 80 73 74 80 81 82 80
53 59 63 64 65 68 73 95 95 96 96 96 96 97 97 95 95 94 93 92 92 90 86 86 87 90 88 90 90 90 87 78 37 34 40 62 85 76 69 73 74 76 76
51 54 59 61 63 66 64 72 92 96 96 97 93 97 92 58 67 74 80 92 88 88 86 85 84 83 85 84 82 80 78 37 38 36 41 88 85 79 78 81 86 87 86
45 53 60 66 59 60 49 67 65 64 65 65 67 74 55 56 54 51 74 88 88 84 82 78 74 69 69 38 45 62 37 47 40 40 60 88 84 82 85 87 88 88 89
36 44 53 75 65 57 50 73 67 72 76 75 76 70 55 60 61 56 59 57 60 66 45 49 47 39 45 39 40 42 45 45 39 54 73 87 84 78 81 84 86 86 86
36 43 50 58 66 60 52 74 72 77 79 78 78 75 62 57 60 56 53 52 55 48 50 47 44 51 50 47 46 47 48 43 43 48 73 92 81 80 82 82 84 84 85
38 43 53 58 65 65 63 64 71 75 75 78 74 70 56 53 61 55 54 50 49 48 48 48 47 43 45 44 43 44 50 50 48 44 69 90 88 82 78 78 79 80 80
40 44 53 57 65 67 58 63 61 68 77 68 70 59 64 54 59 52 54 49 47 46 43 42 41 40 36 40 42 44 46 45 49 56 54 78 88 85 80 76 75 76 76
39 42 56 63 65 68 61 61 58 57 66 62 63 73 68 60 63 57 52 50 47 46 49 46 45 39 36 35 41 44 49 54 58 58 61 68 69 82 80 76 73 73 71
37 45 52 62 66 71 62 60 56 56 65 65 72 76 72 64 63 61 53 52 49 48 42 40 36 35 35 36 42 43 52 60 68 66 68 66 63 61 73 76 71 69 67
39 46 52 69 68 69 77 71 66 69 69 74 78 79 74 67 64 58 52 51 55 44 42 38 36 35 37 42 44 48 49 50 53 51 62 61 58 52 52 72 72 69 68
42 52 59 76 80 78 89 81 73 75 79 80 82 78 79 77 71 60 53 57 50 43 41 36 40 37 40 49 44 50 51 48 49 51 52 47 52 52 49 51 50 57 68
51 66 74 84 84 84 82 89 95 89 88 88 84 76 78 77 75 68 54 58 51 46 42 45 42 48 49 52 54 54 56 58 54 50 48 48 46 44 49 45 40 39 45
58 69 78 88 93 90 88 89 88 85 86 84 85 85 74 75 77 63 57 56 52 44 49 49 50 46 49 51 46 49 60 58 54 51 51 51 51 42 43 44 47 46 42
66 74 85 90 94 91 89 91 91 92 90 89 86 87 81 74 73 64 59 55 53 47 46 52 54 55 56 52 52 46 51 46 56 55 60 54 54 43 44 45 46 45 46
62 79 88 93 94 93 92 91 91 91 90 84 88 86 82 73 65 76 83 79 65 60 62 59 58 65 54 58 58 47 57 46 50 58 53 59 50 48 49 41 44 44 43
90 98 98 97 98 96 94 92 95 97 96 96 95 95 94 92 89 88 81 85 89 84 72 65 62 60 52 54 54 55 54 50 47 42 54 56 49 44 44 45 43 43 43
89 96 96 96 96 95 95 95 94 95 95 94 94 95 96 96 96 93 91 92 87 75 74 64 65 58 50 50 45 51 53 53 47 47 47 50 50 49 42 43 46 43 41

GFSSE_sfc_rhum_186.txt.gz
RH
40 65 92 93 95 95 94 92 93 93 93 92 92 92 91 91 91 90 89 88 85 82 77 79 81 81 80 81 84 89 90 89 87 85 84 81 75 75 79 81 74 70 86
46 64 92 94 95 95 93 92 92 92 92 91 92 91 92 92 91 89 88 87 84 80 76 78 80 80 81 83 88 89 89 88 88 86 82 77 76 75 77 83 82 82 88
49 63 74 94 94 94 92 91 91 91 91 92 92 92 93 92 91 90 89 87 84 80 74 75 78 80 81 83 86 86 87 86 88 88 82 63 69 76 78 87 87 88 87
43 58 64 94 95 94 92 90 91 91 91 92 91 92 92 92 91 90 90 88 85 81 74 72 72 76 79 84 82 82 84 83 84 86 75 59 52 77 75 83 84 84 85
40 46 61 94 95 95 94 92 92 92 92 92 92 92 92 91 90 90 90 88 85 81 75 73 74 78 84 83 82 82 77 79 82 77 63 60 62 73 76 81 83 83 84
39 40 91 95 96 96 95 93 93 94 94 93 92 92 91 91 91 91 91 89 85 82 79 76 79 83 85 84 84 83 80 80 83 56 52 65 57 80 76 81 81 86 88
42 50 76 95 96 96 95 94 94 95 94 94 93 92 92 91 92 92 91 90 88 85 83 83 86 87 87 88 88 86 85 86 78 55 51 70 73 83 76 82 83 85 86
44 67 76 91 95 96 96 96 96 95 94 94 94 93 92 93 93 92 91 90 89 89 90 91 90 90 89 89 87 85 85 88 66 64 58 69 86 82 77 82 83 84 84
50 67 74 79 86 96 97 97 96 95 94 94 94 94 94 94 93 92 92 90 93 93 92 90 89 86 84 84 83 83 85 87 83 68 57 73 81 82 80 83 83 83 83
57 73 74 76 82 87 91 96 95 94 94 94 94 96 96 94 94 94 93 92 93 92 90 88 85 86 87 86 85 86 87 89 78 65 74 86 83 75 76 80 81 83 83
52 70 74 73 76 80 83 88 94 93 94 94 94 97 98 84 88 93 86 94 92 91 89 87 88 89 89 86 83 84 84 69 54 68 80 91 86 79 81 85 85 86 87
51 62 70 73 72 74 57 82 82 80 84 84 83 93 82 79 80 75 83 93 91 90 89 88 87 88 88 72 77 81 76 58 65 75 90 89 85 82 85 87 86 87 88
44 52 63 71 73 70 58 74 72 74 76 79 80 85 78 70 74 72 89 87 90 89 82 81 81 75 71 70 63 65 60 56 66 77 90 90 86 82 83 86 87 87 87
40 47 54 62 70 71 58 70 68 70 74 76 75 82 78 73 74 75 81 80 83 80 78 75 72 71 69 58 58 59 59 62 69 81 92 90 87 83 83 85 86 86 86
36 42 52 57 68 68 69 66 66 68 72 71 74 78 75 71 76 74 79 72 75 76 76 74 72 71 67 61 60 61 60 65 73 81 94 94 89 86 81 82 82 82 81
29 40 51 53 67 65 68 72 65 67 70 69 76 76 78 76 78 71 79 75 72 71 73 75 75 74 71 68 62 62 60 62 75 83 84 90 91 87 82 77 77 74 74
19 35 54 61 64 69 68 75 74 81 82 84 85 86 80 78 83 78 78 79 77 72 75 77 73 69 70 61 62 63 59 67 80 84 82 79 83 87 84 78 70 67 68
15 40 53 53 64 67 70 76 72 75 80 80 80 82 80 78 81 80 81 81 76 77 80 75 72 71 68 68 70 71 70 70 78 81 77 75 75 73 78 78 71 67 66
19 42 53 60 64 70 70 74 69 73 76 73 74 79 78 78 79 81 81 85 83 85 84 76 73 68 65 65 61 73 72 71 75 70 73 74 75 71 72 74 75 74 66
19 36 51 62 67 74 69 69 78 81 79 77 76 85 83 85 83 82 88 90 87 87 86 72 67 65 64 66 41 64 75 74 77 77 77 62 66 68 72 74 78 78 74
33 39 53 68 73 73 73 73 84 90 93 96 93 92 92 91 87 93 95 90 91 90 81 72 67 64 69 74 74 78 77 68 69 77 78 65 64 60 69 67 69 76 72
39 45 55 66 72 71 77 86 86 91 98 94 96 93 90 90 92 94 93 94 92 91 87 81 65 65 72 73 73 76 86 75 72 73 71 63 65 62 60 59 60 64 67
52 57 54 69 73 76 88 95 97 96 97 99 98 96 95 93 93 93 92 96 97 97 96 95 95 88 88 75 78 78 82 85 83 79 78 72 65 66 63 60 56 60 63
72 87 69 76 80 86 92 96 96 98 99 99 98 97 96 93 94 94 95 95 96 96 96 97 96 97 95 82 86 71 73 78 82 92 82 77 68 62 66 63 62 58 62
76 89 93 87 90 95 95 94 96 98 98 99 98 98 97 96 94 93 94 93 95 95 94 94 95 95 95 95 88 88 76 70 72 77 91 90 81 72 69 70 65 68 63
79 92 97 98 99 98 97 96 98 98 98 98 98 98 97 96 95 94 94 93 93 93 93 95 95 95 97 98 97 97 96 97 97 94 89 89 92 91 84 88 89 80 79

GFSSE_sfc_rhum_192.txt.gz
RH
81 94 96 94 92 92 93 93 92 92 89 90 89 88 88 88 89 89 89 89 87 84 80 81 81 80 80 81 84 88 89 90 89 87 85 82 78 82 82 87 84 80 85
79 93 96 94 93 92 93 93 92 91 89 90 90 90 89 89 90 89 89 88 86 82 80 81 79 79 80 81 87 88 88 88 89 89 86 80 80 77 82 89 90 88 88
85 92 94 95 93 92 92 92 92 91 90 91 92 91 90 90 90 90 89 88 86 82 80 79 78 78 80 84 89 89 89 88 87 85 83 86 86 82 84 90 90 88 86
81 92 94 96 94 93 93 92 92 91 91 91 92 92 91 90 90 90 90 89 85 83 80 78 77 78 80 83 83 85 85 86 86 86 85 72 70 80 82 86 86 84 85
81 87 93 97 95 93 93 93 93 92 92 93 93 92 91 90 89 90 90 89 84 81 77 78 78 78 80 80 80 80 80 80 81 75 71 76 81 77 79 83 86 87 89
81 86 98 98 96 94 92 92 93 94 94 94 94 92 91 90 89 90 91 89 85 82 76 75 76 82 81 79 81 82 83 85 84 70 70 68 76 79 78 85 89 91 92
83 94 98 98 97 94 92 93 94 94 94 94 94 94 92 91 90 91 92 91 88 86 84 82 85 84 83 82 81 83 86 87 76 74 73 77 81 82 79 84 90 92 92
86 93 97 98 97 95 94 94 96 95 95 95 95 95 93 93 92 92 92 91 91 91 90 88 87 86 87 87 85 82 91 86 74 80 82 87 87 84 79 84 89 90 90
83 90 97 97 97 97 97 97 97 96 95 95 95 96 95 95 93 92 93 92 92 91 90 89 90 90 88 85 83 86 90 86 85 79 79 92 84 84 78 81 87 88 88
87 91 98 97 92 94 98 99 98 97 97 96 96 96 96 95 94 93 94 94 93 93 92 90 90 88 86 84 84 89 89 85 95 93 94 89 83 81 78 82 86 88 88
89 95 97 98 91 87 87 95 98 97 97 97 96 96 97 97 96 95 96 96 95 95 92 90 87 86 88 86 86 89 86 89 94 98 98 88 83 78 79 86 89 90 92
89 96 95 98 95 89 83 88 96 94 97 96 96 97 98 98 98 94 97 97 96 95 92 89 87 88 90 90 90 86 87 91 97 99 98 93 84 80 84 89 90 90 88
79 83 89 94 97 97 90 88 92 93 96 97 98 98 98 96 99 99 100 99 99 95 98 94 94 94 92 91 88 86 82 93 99 99 96 92 86 79 84 86 86 88 88
85 80 83 84 94 93 94 88 88 91 94 96 96 97 98 99 99 99 99 100 99 99 98 97 98 94 91 85 83 78 92 96 99 99 97 94 88 83 81 84 84 87 88
85 82 83 83 85 86 96 97 92 91 97 96 97 97 96 98 98 98 99 99 99 99 98 98 95 89 87 81 75 90 95 98 99 99 99 95 93 86 82 84 85 86 85
70 82 81 83 81 79 86 92 92 93 94 94 93 94 95 93 98 98 99 99 99 98 97 94 92 91 88 77 78 92 97 98 96 97 93 97 94 88 84 82 83 82 82
55 75 83 83 80 78 80 84 85 87 89 89 90 94 92 93 96 96 98 98 97 94 96 96 94 93 89 75 76 96 96 95 92 88 88 87 88 90 86 80 75 75 74
48 71 79 76 81 80 75 82 78 82 85 84 86 93 93 88 95 97 96 94 91 92 92 95 95 94 87 81 79 98 97 92 88 84 80 79 82 80 82 80 76 69 67
42 62 77 78 83 81 75 86 82 89 87 87 90 93 92 90 91 95 94 94 92 94 93 90 92 89 74 76 76 99 98 93 89 79 79 81 83 81 79 84 83 77 71
40 57 71 78 83 80 84 96 97 98 98 98 96 93 94 90 91 96 98 97 95 94 96 92 83 81 72 71 66 93 99 96 89 86 80 75 77 74 78 82 81 82 76
73 65 68 82 86 83 86 92 97 97 99 99 99 97 96 94 96 95 97 98 97 94 88 82 87 73 78 80 85 96 89 96 91 87 80 80 75 74 78 77 78 78 80
87 76 69 77 84 81 80 93 97 100 100 99 99 99 98 97 98 97 97 97 96 96 95 93 90 92 92 89 86 90 94 92 94 90 85 82 75 72 75 72 75 76 79
98 90 81 81 82 83 97 99 99 99 99 99 99 100 98 98 98 98 98 98 98 98 98 98 95 91 97 99 97 96 99 98 98 98 94 79 76 74 74 72 72 72 76
99 98 92 93 92 96 95 96 94 96 99 99 99 99 99 96 98 98 98 98 98 98 98 98 97 98 98 96 98 97 98 97 99 99 98 98 89 71 73 70 75 73 72
98 99 99 97 97 97 96 92 97 98 100 100 99 99 99 99 98 97 97 97 98 98 98 97 98 98 98 99 98 99 96 97 97 97 99 100 93 85 74 73 77 80 78
98 98 99 98 99 98 97 96 96 97 99 99 100 99 99 99 99 98 97 97 97 97 96 97 97 96 98 97 94 97 96 97 99 98 98 97 95 98 91 86 87 87 86

GFSSE_sfc_rhum_195.txt.gz
RH
88 97 94 94 93 93 92 92 91 91 89 87 87 87 88 89 90 91 91 89 86 83 79 81 80 81 80 81 84 88 90 91 90 88 85 82 80 80 82 87 84 77 83
83 96 95 94 93 93 92 92 90 90 89 88 87 88 88 89 90 91 90 89 86 81 80 80 79 79 80 83 88 89 90 91 90 88 87 80 80 80 82 87 89 86 85
83 94 92 94 93 93 92 92 90 90 89 88 88 88 88 89 89 90 91 89 86 82 78 78 78 79 80 86 90 89 89 90 87 87 86 92 88 81 84 88 87 84 85
82 93 92 94 92 93 93 92 91 89 90 89 89 89 89 89 90 90 91 90 88 83 77 76 75 77 82 87 88 89 89 88 87 87 82 79 77 81 83 84 83 81 83
86 91 95 94 93 92 93 94 93 90 91 90 90 89 89 89 87 88 91 90 88 82 77 75 76 79 84 85 85 84 83 81 79 74 81 82 88 78 81 83 85 85 88
92 95 92 96 94 92 93 94 94 93 94 93 92 90 89 89 87 90 91 88 85 81 78 77 78 81 82 82 83 82 82 80 81 81 74 75 84 79 81 87 92 92 90
95 98 91 98 96 94 92 94 94 94 94 94 93 92 91 91 91 91 92 90 88 85 82 80 82 82 82 84 87 87 86 85 80 80 80 81 88 82 78 86 91 92 92
92 98 90 98 96 95 94 95 96 95 94 95 94 93 92 92 92 92 92 92 92 91 89 86 84 84 85 86 86 89 88 85 75 88 86 88 89 83 79 85 92 92 92
93 97 91 90 96 97 97 97 97 96 96 95 95 95 94 93 93 92 93 92 92 91 88 87 87 86 85 84 87 90 88 89 87 89 81 95 86 83 82 83 87 90 91
96 97 93 89 93 96 98 98 98 97 97 96 96 96 96 94 92 93 94 93 92 91 90 89 89 86 84 83 88 89 89 91 95 94 94 90 87 81 80 81 84 89 90
94 98 96 90 87 92 94 97 98 97 98 97 96 97 97 97 96 95 97 95 94 94 92 90 88 85 87 85 89 86 86 97 96 98 98 89 83 75 80 85 89 90 92
95 98 98 93 87 85 85 96 98 96 97 97 97 98 98 98 98 96 97 98 96 96 93 90 87 88 90 93 93 86 97 97 99 98 98 90 84 76 75 81 88 88 88
80 89 97 97 91 87 86 88 90 96 95 97 98 98 98 97 99 100 100 100 99 97 98 95 94 96 92 93 92 88 97 98 99 99 96 93 86 81 82 85 84 87 89
85 84 93 97 93 87 89 83 88 88 92 94 95 98 99 100 99 98 99 99 100 99 98 98 98 96 93 91 90 85 96 99 99 99 97 93 88 84 81 82 84 86 88
88 80 91 94 96 91 92 84 81 83 87 89 94 96 97 98 98 99 100 98 100 99 99 98 97 96 93 88 82 97 98 99 99 99 99 95 92 86 80 81 84 86 87
81 81 86 89 92 92 92 90 85 83 82 85 90 94 94 93 98 99 99 98 99 99 99 98 98 97 94 85 94 97 99 97 96 99 99 98 93 90 86 83 84 85 84
68 80 88 87 87 91 91 95 90 84 88 91 94 96 96 95 97 97 99 99 99 99 98 98 96 96 94 81 97 99 99 94 92 92 94 91 92 92 88 86 81 79 78
52 78 84 80 87 87 86 93 92 96 96 97 98 98 96 94 96 98 98 98 98 99 98 98 97 98 95 87 99 100 97 91 87 86 84 84 83 81 84 81 78 73 71
52 67 86 85 89 87 85 88 88 93 97 96 97 98 96 94 94 96 97 97 97 98 98 97 98 95 94 82 89 98 96 92 86 79 81 82 84 88 84 84 81 78 74
50 70 85 86 89 88 88 90 96 97 95 97 96 96 95 93 92 95 97 98 97 98 98 98 96 95 88 85 83 97 98 93 86 84 81 78 77 78 81 82 86 82 80
42 75 86 92 94 88 90 98 97 97 98 98 97 96 96 94 94 95 97 98 98 98 97 97 98 93 92 93 98 98 99 96 92 84 82 79 81 80 82 83 86 86 80
83 79 90 92 94 86 88 92 97 98 100 100 100 99 98 97 96 96 95 97 97 99 98 97 95 96 96 93 97 97 99 99 99 95 97 93 90 89 88 83 82 78 82
93 89 89 93 94 90 94 99 99 99 99 100 100 100 99 98 98 98 98 97 98 97 97 96 92 89 98 99 91 95 100 99 99 99 98 97 96 94 89 81 79 80 83
97 98 92 94 95 97 97 97 98 98 98 99 99 100 100 98 99 99 98 98 98 98 98 97 97 93 94 93 99 98 98 96 98 99 98 98 95 90 86 84 83 78 78
99 99 99 99 98 98 96 95 97 98 100 100 100 99 100 99 99 99 98 98 98 98 98 96 98 97 96 96 95 99 99 98 96 97 99 99 98 94 91 91 92 94 91
99 99 99 99 99 98 97 96 96 98 99 99 100 100 99 100 100 99 99 99 98 98 98 97 97 97 97 96 97 96 95 98 99 98 98 98 97 98 93 92 92 94 93

GFSSE_sfc_rhum_201.txt.gz
RH
61 64 94 94 93 90 92 93 93 92 91 90 89 89 90 90 91 91 90 88 86 85 82 82 86 83 80 81 85 89 88 88 87 86 83 80 76 76 79 84 78 55 86
60 67 94 94 92 90 90 92 92 92 91 90 89 89 90 90 90 90 89 88 84 82 81 81 80 80 80 85 91 90 91 91 89 87 83 78 78 78 78 84 77 68 87
64 71 75 94 92 91 89 90 90 90 90 90 90 90 90 90 90 90 89 87 84 82 78 78 77 78 81 89 91 91 91 91 91 91 83 50 56 78 77 85 86 84 84
60 67 69 94 92 92 90 90 90 89 89 89 90 89 89 90 91 91 90 88 84 82 78 75 77 80 85 91 92 89 88 89 91 90 54 50 52 79 78 79 82 81 83
60 64 69 94 92 92 92 91 91 89 89 89 88 89 90 89 89 91 91 87 84 82 78 76 79 84 89 90 89 88 88 87 85 66 55 56 54 71 78 80 81 84 82
62 62 87 95 93 91 92 92 91 91 91 91 90 89 89 88 88 92 92 87 84 82 80 79 81 86 88 87 86 85 81 79 76 50 55 64 56 78 80 85 88 88 90
67 67 74 95 94 91 91 92 91 92 92 91 90 90 89 89 90 92 93 89 86 84 83 83 84 86 87 86 85 83 82 82 47 50 55 61 60 81 80 83 88 90 91
68 72 72 91 94 93 91 92 92 91 91 91 91 91 90 91 91 91 92 91 90 88 86 85 86 87 87 86 85 85 83 79 53 54 56 58 76 83 83 84 90 92 90
74 76 76 78 83 96 95 94 94 92 91 91 92 92 93 91 91 91 91 90 89 87 86 86 87 88 87 86 84 84 85 86 48 51 56 56 88 82 83 85 88 89 89
80 80 79 81 81 78 80 95 94 94 93 92 92 93 93 92 91 92 92 91 89 86 86 86 88 88 87 86 84 82 92 88 49 55 52 50 88 81 80 81 85 89 89
80 79 80 80 82 83 78 80 93 94 94 94 90 94 91 62 68 74 81 93 90 88 87 88 88 86 88 88 84 83 87 52 54 54 52 87 86 78 78 84 86 87 89
73 88 76 77 78 81 72 78 77 73 70 72 71 74 65 72 69 65 79 94 92 91 89 89 87 88 82 56 57 76 50 58 56 56 54 89 86 77 77 84 85 88 90
59 71 74 77 79 78 74 74 80 74 72 73 77 76 73 72 72 68 70 72 73 85 63 70 70 59 63 58 58 61 61 62 54 56 68 91 85 79 76 80 84 86 87
62 64 70 69 75 78 73 76 78 80 78 73 72 80 77 73 75 72 68 76 78 71 71 69 61 68 68 65 63 68 68 63 62 61 70 90 87 80 79 78 78 85 85
59 60 70 72 75 76 82 81 77 77 77 73 77 80 74 71 77 70 78 72 81 86 72 73 70 66 68 68 66 66 69 72 70 59 59 92 90 87 81 79 82 82 87
58 59 68 74 76 73 82 83 79 76 77 74 74 80 84 70 73 70 78 76 84 90 80 71 71 73 68 74 70 71 72 78 81 73 63 70 94 91 87 83 83 85 86
51 56 70 76 77 80 78 82 79 78 82 76 70 80 86 79 82 75 73 82 80 85 85 80 80 75 71 69 72 77 81 84 84 82 72 68 78 94 90 87 86 83 82
42 56 65 68 78 81 77 79 73 75 78 73 71 74 88 88 85 82 78 74 76 88 84 79 77 76 79 75 73 87 86 85 86 86 75 74 79 83 90 88 86 84 80
33 48 64 72 76 81 78 79 77 78 73 71 71 75 86 90 87 83 77 77 80 86 89 83 89 84 78 82 74 89 90 85 84 79 80 85 83 81 82 88 86 83 82
24 48 60 72 75 82 81 83 84 81 76 73 81 82 86 90 92 87 85 84 82 78 89 90 90 85 82 75 74 94 94 88 83 84 86 80 84 83 79 81 80 77 81
61 38 57 74 80 81 85 89 93 93 93 86 88 87 89 90 92 88 88 88 86 82 84 90 93 93 94 94 98 98 98 95 94 95 96 96 90 86 78 73 80 75 66
70 51 50 74 83 79 78 81 81 87 93 92 94 91 87 86 88 88 89 91 90 90 88 93 96 97 94 96 98 98 100 99 99 97 98 99 96 92 86 86 85 80 67
85 62 57 78 85 80 82 93 94 91 94 98 96 94 93 87 88 89 87 88 91 93 92 93 95 96 98 98 94 97 99 98 98 98 98 99 98 96 95 92 90 89 85
85 88 80 86 85 86 92 91 93 89 91 91 93 97 98 95 96 96 94 94 93 95 95 95 97 97 97 98 98 99 95 94 98 99 98 98 97 97 98 97 96 90 85
90 93 94 90 89 93 92 90 93 91 88 93 95 97 98 97 96 96 98 98 99 99 98 98 99 99 98 98 96 99 98 98 97 95 99 99 98 98 98 98 98 96 91
92 94 96 95 96 92 89 88 90 95 96 97 98 98 98 97 97 95 95 96 96 97 98 98 98 98 98 97 96 95 93 95 97 92 96 98 97 98 98 97 97 97 96